Jacksonville, IL

3:30 PM CST on December 08, 2019 (GMT -0600)
Jacksonville Municipal

Weather History for KIJX - November, 2019

Change the Weather History Date:

Thursday, November 21, 2019

  Actual Average (WUND) Record (WUND)
Temperature  
Mean Temperature 48 °F -  
Max Temperature 59 °F - - (-1)
Min Temperature 37 °F - - (-1)
Degree Days  
Heating Degree Days 17    
Moisture  
Dew Point 44 °F    
Average Humidity 83    
Maximum Humidity 92    
Minimum Humidity 70    
Precipitation  
Precipitation 0.08 in - - ()
Sea Level Pressure  
Sea Level Pressure 29.93 in    
Wind  
Wind Speed 15 mph ()    
Max Wind Speed 23 mph    
Max Gust Speed 30 mph    
Visibility 9.9 miles    
Events Rain    
Averages and records for this station are not official NWS values.
T = Trace of Precipitation, MM = Missing Value Source: Averaged Metar Reports

Daily Weather History Graph

Daily Weather History Graph

Search for Another Location

Airport or City:

Astronomy

Nov. 21, 2019 Rise Set
Actual Time 6:52 AM CST 4:41 PM CST
Civil Twilight 6:22 AM CST 5:10 PM CST
Nautical Twilight 5:49 AM CST 5:43 PM CST
Astronomical Twilight 5:17 AM CST 6:15 PM CST
Moon 12:49 AM CST (11/21) 2:09 PM CST (11/21)
Length of Visible Light 10h 47m
Length of Day
9h 49m
Waning Crescent, 29% of the Moon is Illuminated
Nov 21
Waning Crescent
Nov 26
New
Dec 4
First Quarter
Dec 11
Full
Dec 18
Last Quarter

Hourly Weather History & Observations

Time (CST) Temp. Windchill Dew Point Humidity Pressure Visibility Wind Dir Wind Speed Gust Speed Precip Events Conditions
12:15 AM 49.5 °F - 43.0 °F 78% 29.98 in 10.0 mi South 13.8 mph - 0.01 in Rain Light Rain
12:55 AM 49.3 °F - 43.3 °F 80% 29.94 in 10.0 mi SSE 16.1 mph 21.9 mph 0.02 in   Light Drizzle
1:15 AM 50.0 °F - 42.4 °F 75% 29.92 in 10.0 mi SSE 16.1 mph 24.2 mph N/A   Overcast
1:35 AM 50.4 °F - 41.9 °F 73% 29.92 in 10.0 mi SSE 17.3 mph 24.2 mph N/A Rain Light Rain
1:55 AM 50.7 °F - 41.4 °F 70% 29.92 in 10.0 mi SSE 19.6 mph 28.8 mph N/A Rain Light Rain
2:15 AM 50.4 °F - 41.7 °F 72% 29.90 in 10.0 mi South 17.3 mph 27.6 mph N/A Rain Light Rain
3:15 AM 49.1 °F - 43.9 °F 82% 29.88 in 10.0 mi SSE 17.3 mph 26.5 mph N/A Rain Light Rain
3:35 AM 50.2 °F - 43.7 °F 78% 29.86 in 10.0 mi SSE 20.7 mph 29.9 mph 0.01 in   Overcast
3:55 AM 50.7 °F - 43.2 °F 75% 29.85 in 10.0 mi South 19.6 mph 28.8 mph 0.01 in   Overcast
4:15 AM 50.0 °F - 44.1 °F 80% 29.85 in 7.0 mi South 16.1 mph 25.3 mph 0.02 in Rain Light Rain
4:35 AM 49.8 °F - 45.1 °F 84% 29.85 in 10.0 mi South 18.4 mph 24.2 mph 0.05 in Rain Light Rain
4:55 AM 50.2 °F - 45.9 °F 85% 29.85 in 10.0 mi South 19.6 mph 26.5 mph 0.05 in   Overcast
5:15 AM 50.2 °F - 46.9 °F 89% 29.84 in 10.0 mi South 17.3 mph 25.3 mph N/A   Overcast
5:35 AM 50.2 °F - 47.5 °F 90% 29.83 in 10.0 mi South 16.1 mph 26.5 mph N/A   Mostly Cloudy
5:55 AM 50.9 °F - 47.8 °F 89% 29.82 in 10.0 mi South 18.4 mph 27.6 mph N/A   Mostly Cloudy
6:15 AM 51.3 °F - 48.0 °F 89% 29.84 in 10.0 mi South 16.1 mph 27.6 mph N/A Rain Light Rain
6:35 AM 51.8 °F - 48.0 °F 87% 29.84 in 10.0 mi South 18.4 mph 27.6 mph N/A   Overcast
6:55 AM 51.8 °F - 48.0 °F 87% 29.84 in 10.0 mi South 17.3 mph 25.3 mph N/A   Mostly Cloudy
7:15 AM 51.4 °F - 48.4 °F 89% 29.83 in 10.0 mi South 17.3 mph 21.9 mph N/A Rain Light Rain
7:35 AM 51.3 °F - 48.9 °F 92% 29.83 in 10.0 mi South 13.8 mph 19.6 mph N/A   Overcast
7:55 AM 52.2 °F - 49.3 °F 90% 29.83 in 10.0 mi South 17.3 mph 24.2 mph N/A   Overcast
8:15 AM 52.7 °F - 49.6 °F 89% 29.82 in 10.0 mi South 18.4 mph 25.3 mph N/A   Overcast
8:35 AM 53.6 °F - 50.4 °F 89% 29.82 in 10.0 mi South 18.4 mph 27.6 mph N/A   Overcast
8:55 AM 53.6 °F - 50.5 °F 89% 29.82 in 10.0 mi SSW 16.1 mph 25.3 mph N/A   Overcast
9:15 AM 54.5 °F - 51.1 °F 88% 29.82 in 10.0 mi SSW 18.4 mph 24.2 mph N/A   Overcast
9:35 AM 55.2 °F - 51.8 °F 88% 29.84 in 10.0 mi SSW 15.0 mph 20.7 mph N/A   Overcast
9:55 AM 55.8 °F - 52.7 °F 89% 29.84 in 7.0 mi SW 11.5 mph 18.4 mph N/A   Overcast
10:15 AM 56.3 °F - 53.6 °F 91% 29.84 in 10.0 mi SW 13.8 mph - N/A   Overcast
10:35 AM 56.7 °F - 54.0 °F 91% 29.85 in 10.0 mi SW 12.7 mph - N/A   Overcast
10:55 AM 57.4 °F - 54.7 °F 91% 29.85 in 10.0 mi WSW 13.8 mph - N/A   Overcast
11:15 AM 58.1 °F - 54.1 °F 87% 29.84 in 10.0 mi WSW 13.8 mph 23.0 mph N/A   Overcast
11:35 AM 59.2 °F - 53.6 °F 82% 29.85 in 10.0 mi WSW 19.6 mph 27.6 mph N/A   Overcast
11:55 AM 58.1 °F - 51.8 °F 80% 29.85 in 10.0 mi West 21.9 mph 27.6 mph N/A   Mostly Cloudy
12:15 PM 57.2 °F - 49.3 °F 75% 29.86 in 10.0 mi West 23.0 mph 27.6 mph N/A   Scattered Clouds
12:35 PM 55.6 °F - 49.3 °F 79% 29.87 in 10.0 mi West 20.7 mph 27.6 mph N/A   Mostly Cloudy
1:15 PM 53.2 °F - 47.1 °F 80% 29.88 in 10.0 mi West 19.6 mph 27.6 mph N/A   Overcast
1:35 PM 52.2 °F - 46.8 °F 82% 29.89 in 10.0 mi West 19.6 mph 24.2 mph N/A   Overcast
1:55 PM 51.4 °F - 46.2 °F 82% 29.90 in 10.0 mi West 17.3 mph 23.0 mph N/A   Overcast
2:15 PM 50.2 °F - 45.7 °F 85% 29.91 in 10.0 mi West 15.0 mph 20.7 mph N/A   Overcast
2:35 PM 50.0 °F - 45.5 °F 85% 29.92 in 10.0 mi West 12.7 mph 18.4 mph N/A   Overcast
2:55 PM 49.6 °F - 45.3 °F 85% 29.93 in 10.0 mi West 15.0 mph - N/A   Overcast
3:15 PM 49.1 °F - 44.1 °F 83% 29.94 in 10.0 mi WNW 17.3 mph - N/A   Overcast
3:35 PM 48.7 °F - 43.5 °F 82% 29.95 in 10.0 mi West 13.8 mph 23.0 mph N/A   Overcast
3:55 PM 48.4 °F - 42.6 °F 80% 29.95 in 10.0 mi WNW 15.0 mph 19.6 mph N/A   Overcast
4:15 PM 47.7 °F - 41.9 °F 80% 29.97 in 10.0 mi WNW 13.8 mph - N/A   Overcast
4:35 PM 47.3 °F - 41.9 °F 82% 29.98 in 10.0 mi WNW 12.7 mph - N/A   Overcast
5:15 PM 46.0 °F 39.9 °F 39.9 °F 79% 30.01 in 10.0 mi NW 13.8 mph 21.9 mph N/A   Overcast
5:50 PM 44.1 °F 37.7 °F 37.6 °F 78% 30.03 in 10.0 mi NW 12.7 mph - N/A   Overcast
6:35 PM 43.7 °F 38.6 °F 37.6 °F 79% 30.05 in 10.0 mi WNW 9.2 mph - N/A   Overcast
7:15 PM 42.3 °F 34.8 °F 36.1 °F 79% 30.05 in 10.0 mi NW 15.0 mph 24.2 mph N/A   Overcast
7:35 PM 41.9 °F 34.3 °F 36.1 °F 80% 30.07 in 10.0 mi WNW 15.0 mph 24.2 mph N/A   Overcast
7:55 PM 41.4 °F 34.3 °F 36.0 °F 81% 30.08 in 10.0 mi WNW 12.7 mph 20.7 mph N/A   Overcast
8:15 PM 41.0 °F 35.2 °F 36.0 °F 82% 30.08 in 10.0 mi WNW 9.2 mph - N/A   Overcast
8:35 PM 41.0 °F 34.7 °F 36.1 °F 83% 30.09 in 10.0 mi West 10.4 mph - N/A   Overcast
8:55 PM 41.0 °F 34.7 °F 35.8 °F 82% 30.09 in 10.0 mi WNW 10.4 mph - N/A   Overcast
9:15 PM 40.3 °F 32.2 °F 35.6 °F 83% 30.10 in 10.0 mi NW 15.0 mph - N/A   Overcast
9:35 PM 39.7 °F 31.2 °F 35.6 °F 85% 30.10 in 10.0 mi NW 16.1 mph 19.6 mph N/A   Overcast
9:55 PM 39.4 °F 31.1 °F 34.9 °F 84% 30.10 in 10.0 mi NW 15.0 mph 21.9 mph N/A   Overcast
10:15 PM 39.2 °F 31.6 °F 34.2 °F 82% 30.09 in 10.0 mi NNW 12.7 mph - N/A   Overcast
10:35 PM 38.5 °F 29.2 °F 33.8 °F 83% 30.10 in 10.0 mi NW 17.3 mph - N/A   Overcast
10:55 PM 38.3 °F 30.5 °F 33.6 °F 83% 30.12 in 10.0 mi NW 12.7 mph 20.7 mph N/A   Overcast
11:15 PM 38.3 °F 33.2 °F 33.6 °F 83% 30.13 in 10.0 mi NW 6.9 mph - N/A   Overcast
11:35 PM 37.6 °F 28.8 °F 33.4 °F 85% 30.15 in 10.0 mi NW 15.0 mph 19.6 mph N/A   Overcast
11:55 PM 37.4 °F 28.5 °F 32.5 °F 83% 30.12 in 10.0 mi NW 15.0 mph 21.9 mph N/A   Overcast